Theta_e
306 306 307 307 306 308 309 309 309 308 310 310 309 309 309 310 310 310 311 312 312 312 312 313 313 314 315 317 319 323 328 333 333 332 340 342 339 336 332 335 336 339 338 336
305 306 307 308 307 307 307 308 310 309 310 311 309 309 309 309 309 310 311 311 312 312 312 312 313 313 314 314 316 319 322 325 331 336 333 338 343 340 336 340 337 337 338 337
306 307 308 309 310 310 310 310 311 311 311 308 308 307 308 309 310 310 310 311 311 311 310 311 312 312 313 313 314 315 317 320 322 325 332 337 340 343 342 338 337 336 337 337
306 307 308 308 310 310 310 311 311 310 308 307 309 308 307 307 307 308 308 309 310 311 313 313 314 314 313 313 313 314 315 316 318 321 323 325 330 335 333 337 336 334 335 336
307 307 308 308 310 310 308 311 310 310 308 308 307 307 306 306 308 307 307 310 311 312 314 314 313 313 314 314 314 314 314 315 316 318 321 324 325 326 330 334 335 333 334 337
305 307 307 307 311 310 308 308 305 304 305 307 306 307 306 306 308 307 310 313 313 313 312 312 311 311 312 313 314 314 314 314 315 316 319 322 325 326 330 334 335 333 336 334
307 307 309 311 310 307 305 304 306 306 305 306 306 307 306 307 308 307 311 313 313 312 312 311 312 312 312 312 313 315 315 314 315 316 318 322 323 326 327 328 332 334 335 332
308 308 310 312 309 308 307 305 306 309 309 305 306 307 306 307 308 310 312 313 313 312 312 312 312 313 314 315 312 315 317 315 315 316 317 320 325 324 324 325 328 331 335 331
310 310 309 310 309 308 308 308 305 306 305 305 306 306 307 308 308 309 311 312 312 311 311 311 312 313 314 315 314 318 317 318 316 315 317 319 322 329 327 331 332 332 334 329
309 311 310 310 309 308 307 306 307 304 310 311 308 307 308 307 307 307 309 310 309 310 310 311 312 314 315 316 316 316 318 320 320 316 316 320 321 328 331 331 332 332 330 331
309 310 310 310 309 308 306 308 307 304 303 306 307 308 306 307 308 309 306 309 309 310 311 311 312 314 317 316 317 320 321 322 323 321 318 321 321 324 330 330 329 330 329 327
310 309 311 311 309 307 306 307 307 304 305 311 310 311 309 307 306 307 308 309 312 312 311 312 314 314 317 317 322 322 323 321 328 330 326 324 321 324 329 330 329 328 327 327
310 309 311 309 307 306 310 310 307 306 305 311 312 310 307 307 307 308 308 311 312 312 315 315 315 313 315 317 321 322 325 321 327 335 331 326 322 324 328 328 328 326 326 328
311 308 311 309 307 304 309 309 309 309 313 311 311 311 310 309 309 307 311 311 310 310 311 312 314 314 312 315 318 323 325 323 326 337 331 326 322 322 323 324 324 325 327 331
308 310 309 309 310 310 310 311 311 311 311 312 312 311 311 310 309 309 310 309 309 309 309 314 313 313 312 314 318 319 324 324 323 338 332 328 324 323 323 324 327 328 331 334
305 307 308 310 310 311 311 310 310 310 311 311 311 311 311 311 310 309 309 309 309 309 309 311 309 309 311 313 317 318 323 324 323 338 335 331 325 325 328 329 332 336 336 334
307 306 308 310 309 310 311 310 310 310 312 311 312 311 310 309 310 310 309 309 309 308 310 308 309 308 309 313 317 318 321 324 323 337 336 336 332 330 334 335 335 334 334 341
304 305 308 309 309 312 308 311 311 311 312 310 310 310 310 310 310 310 310 309 309 309 308 307 308 307 308 309 311 317 323 324 325 336 337 335 337 337 337 338 336 340 342 341
304 307 311 313 309 307 309 311 311 310 311 311 310 310 310 311 310 309 308 307 308 308 308 307 307 307 309 312 314 321 323 324 328 334 340 340 338 335 336 338 339 342 342 342
308 307 311 311 308 304 308 311 310 308 313 310 310 311 311 310 310 308 307 306 306 306 306 306 306 308 311 314 315 319 324 323 328 331 338 339 336 335 338 339 341 341 338 334
310 310 311 312 312 307 309 310 310 311 310 310 310 310 308 306 306 305 305 306 306 306 306 306 307 310 313 317 318 320 324 323 328 333 337 337 337 338 339 339 340 337 334 332
304 308 308 310 311 310 310 310 312 309 310 310 309 306 304 304 304 305 306 306 307 307 307 308 309 311 315 320 321 323 324 323 330 338 336 336 335 337 337 337 335 333 329 328
305 305 303 304 303 303 307 309 310 310 310 307 306 305 305 305 305 305 306 307 307 308 308 309 310 313 317 321 323 323 325 322 329 335 335 335 335 335 334 332 331 329 330 330
305 305 306 307 305 306 308 309 310 310 307 305 305 305 305 306 307 306 306 307 307 308 309 310 312 314 319 323 323 324 323 324 329 329 334 335 334 331 330 328 328 329 330 329
306 306 305 306 306 308 309 309 310 309 305 304 305 305 305 305 306 306 306 307 308 310 312 314 315 317 320 322 323 324 325 328 330 330 332 333 331 330 330 329 329 329 328 328
306 306 309 309 308 308 309 309 308 306 304 304 305 305 304 305 305 306 307 308 309 311 316 318 319 321 320 324 323 324 326 324 331 332 332 330 328 330 329 329 329 329 329 329
Wind_Speed
4 4 3 7 7 2 1 3 3 4 3 6 8 10 8 11 10 13 12 14 18 13 10 11 10 8 9 7 19 20 26 29 28 29 34 42 47 50 50 45 39 34 32 31
5 1 4 3 3 4 4 2 2 4 5 3 9 18 14 8 7 10 11 19 17 14 17 18 17 15 14 14 11 19 24 27 34 35 33 36 43 50 49 47 41 38 42 36
4 4 1 1 2 3 2 3 2 5 4 5 6 6 2 4 6 11 15 14 19 26 30 24 23 22 20 20 19 15 16 25 32 36 39 40 41 46 46 46 46 42 40 36
4 3 3 2 3 4 2 5 3 2 4 3 4 6 2 1 5 3 15 17 18 16 17 19 18 18 20 23 21 20 19 18 21 33 38 41 44 46 48 55 50 42 40 34
5 4 3 1 2 4 4 2 1 1 2 1 4 1 7 5 3 4 8 17 17 19 19 21 20 21 20 22 23 23 24 23 22 21 32 40 44 46 41 50 49 46 42 32
7 2 4 5 3 2 2 3 4 3 2 2 5 3 4 3 4 8 8 18 16 15 19 20 22 24 26 25 25 25 26 28 27 25 24 34 40 44 45 47 50 49 42 31
2 1 3 2 4 3 6 6 4 5 3 4 2 5 7 8 10 9 9 21 23 23 23 24 30 34 34 33 27 26 26 30 31 30 25 28 38 39 41 45 51 53 44 35
5 3 4 2 4 5 3 6 4 4 3 4 3 7 7 6 13 20 16 21 24 28 27 29 33 34 36 37 28 26 26 29 30 33 30 29 30 40 46 44 46 49 40 35
4 3 2 1 3 7 2 3 3 1 2 3 5 7 11 13 9 10 18 18 27 35 33 34 33 32 36 36 27 23 24 29 30 33 33 31 28 30 37 34 33 34 33 35
2 2 2 2 2 0 5 6 2 2 2 5 4 7 11 11 15 6 7 15 31 36 40 34 27 32 32 29 22 25 20 26 30 32 33 32 30 26 28 29 29 30 35 36
3 3 3 1 5 7 1 2 4 3 4 4 3 7 6 6 8 5 7 22 29 34 36 25 26 30 31 28 25 25 21 23 28 30 33 33 34 29 31 32 31 32 33 29
4 4 4 8 3 3 5 7 6 4 5 4 3 14 3 13 5 6 13 21 28 27 26 20 24 28 29 34 25 25 24 25 23 27 31 34 36 34 34 35 35 33 29 27
4 1 1 5 1 3 3 4 4 3 2 11 7 11 2 6 9 18 18 19 24 29 23 20 23 29 32 33 28 24 32 29 20 22 29 32 37 36 37 36 34 31 29 26
2 5 6 6 4 4 3 7 6 5 5 9 13 27 20 16 15 11 17 19 27 29 24 29 27 27 33 32 37 28 31 31 19 21 28 29 33 34 36 36 32 30 27 27
6 8 7 8 9 7 11 17 18 15 18 12 21 19 24 16 13 9 15 20 23 26 28 22 27 31 34 33 38 35 30 32 21 18 23 21 28 31 30 28 29 26 25 25
1 2 4 4 8 12 17 19 19 20 20 19 22 23 18 12 9 12 15 19 27 26 24 23 32 37 35 34 40 38 29 31 21 13 14 20 23 24 25 26 25 24 24 25
3 3 1 5 1 6 9 15 12 7 7 8 8 13 2 6 6 10 19 26 28 27 21 26 33 38 36 31 34 39 32 30 18 13 11 18 22 23 23 23 23 24 25 26
6 5 3 4 2 5 5 4 5 7 7 8 10 11 4 6 16 21 25 28 30 27 26 35 38 43 36 34 34 36 28 27 13 13 17 22 23 21 21 23 28 28 28 29
10 5 3 3 4 7 7 2 1 4 7 5 9 6 8 18 25 25 23 24 26 33 41 41 41 40 36 33 27 25 24 22 11 15 23 25 23 22 24 29 30 31 32 33
5 8 3 1 1 5 4 3 7 4 9 4 5 10 18 16 15 17 25 36 38 39 39 36 40 39 34 28 22 26 23 20 15 17 25 25 25 25 28 32 34 31 34 29
3 3 8 6 5 7 4 5 3 1 3 14 24 25 17 16 21 44 41 38 37 40 38 37 35 34 31 25 24 24 23 20 15 17 28 27 27 30 32 33 33 35 34 29
3 3 3 3 3 7 2 1 3 5 27 29 15 32 26 31 39 35 36 39 37 37 36 35 35 33 27 22 22 24 26 16 4 27 29 28 29 32 37 34 37 35 30 28
3 4 3 7 5 5 7 15 21 29 22 23 33 32 31 34 36 37 37 37 37 36 36 37 33 30 25 19 20 19 17 15 7 26 27 32 31 35 36 37 36 33 29 25
4 3 4 2 6 8 15 25 28 24 25 32 33 34 29 37 32 35 37 35 35 37 35 35 33 29 24 14 11 17 16 17 12 22 27 33 38 36 34 34 32 31 26 21
8 4 4 7 12 16 22 22 29 24 29 33 31 32 32 30 34 34 35 36 36 37 37 33 30 27 25 14 14 11 17 18 20 30 42 40 38 38 36 34 30 23 17 14
3 3 3 4 20 21 21 31 30 25 36 36 38 32 31 28 32 33 34 35 37 38 33 29 26 23 21 20 17 21 19 21 23 36 41 41 39 35 33 30 27 19 16 13
Wind_Direction
21 74 211 251 209 175 109 186 230 285 348 9 291 288 284 277 275 285 290 309 311 318 324 327 329 310 310 293 250 247 262 261 257 262 252 240 238 235 234 236 247 247 256 258
23 211 212 269 164 182 180 175 230 288 285 301 277 294 286 217 235 233 275 299 292 299 313 317 310 300 292 293 287 245 244 255 259 257 260 258 248 242 238 243 251 254 260 254
163 240 3 96 109 132 156 160 222 237 311 290 314 281 90 279 250 285 296 284 293 303 309 308 304 301 292 286 289 278 256 240 245 257 259 256 251 248 249 255 264 256 256 250
219 261 155 133 200 141 197 202 215 261 31 292 37 286 260 119 268 277 316 313 305 307 312 316 317 309 295 287 285 284 277 268 259 243 246 250 252 251 254 256 259 256 259 256
259 181 226 359 212 175 201 160 332 294 241 103 280 290 277 309 330 330 309 305 296 300 309 316 320 318 315 301 292 286 282 274 272 268 250 245 244 251 253 251 251 257 258 258
248 238 182 201 115 101 77 40 34 51 76 20 260 183 244 241 226 315 308 322 322 311 315 318 329 331 326 310 301 291 283 272 267 269 264 251 248 245 249 245 246 255 253 251
259 211 302 138 108 48 73 52 340 345 3 234 285 294 244 248 278 269 255 292 312 315 321 327 331 330 324 323 301 296 288 276 266 264 268 254 244 243 245 248 248 249 249 248
174 304 167 179 145 188 189 152 158 244 229 245 1 251 252 221 237 278 264 281 298 314 315 322 330 331 330 321 300 294 291 284 275 264 265 260 242 240 242 248 250 252 248 245
155 270 308 185 175 137 170 173 192 153 8 32 228 290 293 281 284 271 268 290 305 317 319 324 328 335 333 323 302 296 296 286 279 267 262 259 245 241 241 244 243 247 239 243
176 304 276 312 83 278 159 161 86 21 258 259 258 254 238 301 292 300 309 305 317 315 316 321 325 333 332 322 306 300 297 290 280 270 257 255 243 240 239 234 233 231 235 241
163 184 266 279 198 199 168 170 75 132 154 202 300 264 220 239 259 291 306 318 319 315 317 322 327 328 334 325 314 306 307 298 276 267 254 249 235 229 235 233 233 235 241 245
190 163 223 234 270 226 170 192 156 137 244 216 216 262 340 279 302 313 315 320 331 338 321 320 332 327 327 330 318 322 328 318 285 263 250 241 227 226 227 234 239 240 244 241
182 239 283 316 20 356 162 181 185 184 128 233 246 267 275 339 316 313 315 322 325 331 335 327 322 325 323 327 319 324 332 324 288 257 249 233 221 221 226 233 240 246 238 224
221 189 206 225 233 153 282 258 222 215 245 271 234 274 278 288 289 297 304 317 320 322 315 313 313 314 324 309 322 310 324 330 295 257 236 221 220 222 226 232 237 225 212 209
181 226 206 236 249 269 259 262 260 244 249 246 275 273 281 290 287 280 299 308 306 312 316 301 307 312 314 312 312 310 310 326 308 254 227 212 215 215 214 214 206 203 203 204
35 268 170 256 235 242 258 260 254 253 253 256 261 269 275 270 274 271 292 310 313 308 304 307 317 315 310 316 302 306 303 320 308 248 230 215 197 199 194 193 197 197 196 201
179 142 28 268 227 295 272 253 241 218 218 205 236 257 281 274 272 297 310 307 306 302 293 310 308 309 302 291 297 303 305 319 297 235 220 206 186 182 188 196 194 191 191 190
183 151 191 267 32 244 236 238 231 226 249 247 273 280 287 279 286 293 296 296 295 291 292 307 300 303 296 293 293 300 313 311 282 219 200 188 185 187 194 194 182 183 185 176
208 171 236 251 218 296 276 36 202 187 278 258 285 322 292 297 300 286 289 293 287 287 289 296 293 296 296 290 296 306 303 302 273 223 204 203 201 199 196 191 186 180 170 166
162 181 207 356 274 250 244 140 109 98 278 63 21 323 306 310 300 298 305 301 294 291 293 289 296 299 295 286 288 289 288 295 259 230 212 205 207 207 191 186 178 170 162 162
132 196 222 242 255 279 260 157 128 323 321 321 303 293 304 291 283 299 303 297 293 296 298 295 296 294 292 291 292 287 285 281 266 216 214 204 204 196 181 178 164 161 162 162
198 200 219 237 237 269 148 98 224 277 310 298 306 304 293 294 302 297 296 298 297 296 298 296 294 294 294 297 294 282 275 265 215 192 195 197 195 177 168 167 156 158 164 166
287 193 215 185 230 247 285 257 292 309 291 307 304 292 298 298 296 296 298 299 298 297 296 301 301 303 301 295 279 273 261 225 198 169 180 169 166 154 150 152 156 161 165 167
281 200 237 329 265 254 282 301 304 301 303 314 307 293 302 298 301 302 298 298 297 297 294 298 297 295 290 300 281 265 223 203 170 165 170 160 154 152 156 156 160 164 164 169
261 277 243 258 276 293 279 294 301 299 309 318 302 303 301 303 300 299 298 298 298 298 302 302 295 290 283 291 280 175 173 183 168 173 170 155 156 156 159 162 161 163 168 176
218 254 247 271 301 292 290 305 313 312 314 312 305 307 308 302 301 305 302 302 301 305 309 300 294 291 274 269 211 226 164 145 149 156 154 156 157 161 159 162 158 161 163 153